,,,PA_Meas_PMT16A,,PR_Meas_QMR101_102,,RH_Meas_QMH101,,SR_Meas_QMS101,,TA_Meas_QMH101,,GenWind,,GenWind,
date,time,status,PA,status,PR,status,RH,status,SR,status,TA,status,DirAvg,status,SpdAvg,
2009-12-22, 00:00:05,VALID,1004.16,VALID,0,VALID,92.4481,VALID,0,VALID,23.3092,VALID,194,VALID,1.34609,
2009-12-22, 00:01:05,VALID,1004.18,VALID,0,VALID,92.3108,VALID,0.112286,VALID,23.2897,VALID,187,VALID,1.60508,
2009-12-22, 00:02:05,VALID,1004.18,VALID,0,VALID,92.2345,VALID,0.112286,VALID,23.2897,VALID,202,VALID,1.46641,
2009-12-22, 00:03:05,VALID,1004.18,VALID,0,VALID,92.2726,VALID,0,VALID,23.311,VALID,198,VALID,1.06992,
2009-12-22, 00:04:05,VALID,1004.19,VALID,0,VALID,92.3031,VALID,0.112286,VALID,23.2897,VALID,184,VALID,0.882422,
2009-12-22, 00:05:05,VALID,1004.17,VALID,0,VALID,92.3718,VALID,0.112286,VALID,23.2897,VALID,189,VALID,1.09453,
2009-12-22, 00:06:05,VALID,1004.18,VALID,0,VALID,92.4176,VALID,0.112286,VALID,23.3092,VALID,188,VALID,0.634375,
2009-12-22, 00:07:05,VALID,1004.17,VALID,0,VALID,92.471,VALID,0.112286,VALID,23.3092,VALID,188,VALID,1.1582,
2009-12-22, 00:08:05,VALID,1004.15,VALID,0,VALID,92.5244,VALID,0,VALID,23.3092,VALID,168,VALID,0.712109,
2009-12-22, 00:09:05,VALID,1004.16,VALID,0,VALID,92.5702,VALID,0.112286,VALID,23.3092,VALID,170,VALID,0.894141,
2009-12-22, 00:10:05,VALID,1004.16,VALID,0,VALID,92.5473,VALID,0.112286,VALID,23.2897,VALID,159,VALID,0.745703,
2009-12-22, 00:11:05,VALID,1004.15,VALID,0,VALID,92.5702,VALID,0,VALID,23.2915,VALID,160,VALID,0.826172,
2009-12-22, 00:12:05,VALID,1004.14,VALID,0.5,VALID,92.5397,VALID,0,VALID,23.2507,VALID,159,VALID,1.05508,
2009-12-22, 00:13:05,VALID,1004.1,VALID,0,VALID,92.6465,VALID,0.112286,VALID,23.2507,VALID,167,VALID,0.832812,
2009-12-22, 00:14:05,VALID,1004.11,VALID,0,VALID,92.677,VALID,0.112286,VALID,23.2702,VALID,168,VALID,1.37734,
2009-12-22, 00:15:05,VALID,1004.05,VALID,0,VALID,92.6236,VALID,0.112286,VALID,23.2507,VALID,169,VALID,1.49375,
2009-12-22, 00:16:05,VALID,1004.06,VALID,0,VALID,92.5244,VALID,0,VALID,23.2312,VALID,163,VALID,1.22852,
2009-12-22, 00:17:05,VALID,1004.06,VALID,0,VALID,92.4634,VALID,0.112286,VALID,23.2312,VALID,161,VALID,1.00898,
2009-12-22, 00:18:05,VALID,1004.01,VALID,0,VALID,92.5854,VALID,0.112286,VALID,23.2507,VALID,212,VALID,1.16758,
2009-12-22, 00:19:05,VALID,1004.01,VALID,0,VALID,92.4786,VALID,0.112286,VALID,23.2507,VALID,194,VALID,1.60898,
2009-12-22, 00:20:05,VALID,1004,VALID,0,VALID,92.2574,VALID,0.112286,VALID,23.2507,VALID,201,VALID,1.70742,
2009-12-22, 00:21:05,VALID,1003.99,VALID,0,VALID,92.0437,VALID,0.112286,VALID,23.2702,VALID,214,VALID,2.02227,
2009-12-22, 00:22:05,VALID,1003.98,VALID,0,VALID,92.0132,VALID,0.112286,VALID,23.2897,VALID,212,VALID,1.65234,
2009-12-22, 00:23:05,VALID,1003.96,VALID,0,VALID,92.0437,VALID,0.112286,VALID,23.3092,VALID,198,VALID,1.19531,
2009-12-22, 00:24:05,VALID,1003.97,VALID,0,VALID,91.8148,VALID,0,VALID,23.2702,VALID,202,VALID,1.33828,
2009-12-22, 00:25:05,VALID,1003.97,VALID,0,VALID,91.8988,VALID,0.112286,VALID,23.2897,VALID,190,VALID,1.14531,
2009-12-22, 00:26:05,VALID,1003.98,VALID,0,VALID,92.0209,VALID,0.112286,VALID,23.2897,VALID,189,VALID,1.33867,
2009-12-22, 00:27:05,VALID,1003.93,VALID,0,VALID,92.1506,VALID,0,VALID,23.2702,VALID,195,VALID,1.12852,
2009-12-22, 00:28:05,VALID,1003.94,VALID,0,VALID,92.0514,VALID,0.112286,VALID,23.2702,VALID,191,VALID,1.30195,
2009-12-22, 00:29:05,VALID,1003.91,VALID,0,VALID,92.0361,VALID,0.112286,VALID,23.2507,VALID,197,VALID,0.997266,
2009-12-22, 00:30:05,VALID,1003.91,VALID,0,VALID,92.1353,VALID,0,VALID,23.2507,VALID,198,VALID,0.832812,
2009-12-22, 00:31:05,VALID,1003.9,VALID,0.5,VALID,92.1963,VALID,0.112286,VALID,23.2507,VALID,219,VALID,1.18398,
2009-12-22, 00:32:05,VALID,1003.92,VALID,0,VALID,92.1429,VALID,0.112286,VALID,23.2507,VALID,213,VALID,0.709375,
2009-12-22, 00:33:05,VALID,1003.89,VALID,0,VALID,92.2268,VALID,0.112286,VALID,23.2312,VALID,213,VALID,0.808203,
2009-12-22, 00:34:05,VALID,1003.88,VALID,0,VALID,92.1887,VALID,0.112286,VALID,23.2312,VALID,224,VALID,0.724609,
2009-12-22, 00:35:05,VALID,1003.88,VALID,0,VALID,92.265,VALID,0.112286,VALID,23.2312,VALID,236,VALID,0.5875,
2009-12-22, 00:36:05,VALID,1003.84,VALID,0,VALID,92.3947,VALID,0.112286,VALID,23.2312,VALID,225,VALID,0.739453,
2009-12-22, 00:37:05,VALID,1003.84,VALID,0,VALID,92.4481,VALID,0.112286,VALID,23.2117,VALID,240,VALID,0.983984,
2009-12-22, 00:38:05,VALID,1003.84,VALID,0,VALID,92.4405,VALID,0.112286,VALID,23.1921,VALID,246,VALID,0.688672,
2009-12-22, 00:39:05,VALID,1003.81,VALID,0,VALID,92.5397,VALID,0,VALID,23.1921,VALID,208,VALID,1.23984,
2009-12-22, 00:40:05,VALID,1003.79,VALID,0,VALID,92.532,VALID,0.112286,VALID,23.1921,VALID,211,VALID,0.528906,
2009-12-22, 00:41:05,VALID,1003.8,VALID,0,VALID,92.5778,VALID,0,VALID,23.1726,VALID,207,VALID,0.925,
2009-12-22, 00:42:05,VALID,1003.74,VALID,0,VALID,92.5244,VALID,0,VALID,23.1549,VALID,204,VALID,0.70625,
2009-12-22, 00:43:05,VALID,1003.74,VALID,0,VALID,92.532,VALID,0,VALID,23.1549,VALID,215,VALID,0.897266,
2009-12-22, 00:44:05,VALID,1003.72,VALID,0,VALID,92.532,VALID,0,VALID,23.1549,VALID,221,VALID,0.703906,
2009-12-22, 00:45:05,VALID,1003.7,VALID,0,VALID,92.6312,VALID,0,VALID,23.1744,VALID,183,VALID,0.553906,
2009-12-22, 00:46:05,VALID,1003.69,VALID,0,VALID,92.6083,VALID,0,VALID,23.1744,VALID,197,VALID,1.05156,
2009-12-22, 00:47:05,VALID,1003.7,VALID,0,VALID,92.6007,VALID,0,VALID,23.1744,VALID,223,VALID,1.11875,
2009-12-22, 00:48:05,VALID,1003.67,VALID,0,VALID,92.4252,VALID,0,VALID,23.1549,VALID,212,VALID,1.55352,
2009-12-22, 00:49:05,VALID,1003.69,VALID,0,VALID,92.3184,VALID,0,VALID,23.1354,VALID,232,VALID,1.35273,
2009-12-22, 00:50:05,VALID,1003.68,VALID,0,VALID,92.4557,VALID,0,VALID,23.1566,VALID,275,VALID,0.401953,
2009-12-22, 00:51:05,VALID,1003.61,VALID,0,VALID,92.4634,VALID,0,VALID,23.1159,VALID,237,VALID,0.894922,
2009-12-22, 00:52:05,VALID,1003.66,VALID,0.5,VALID,92.5244,VALID,0,VALID,23.0964,VALID,228,VALID,0.635938,
2009-12-22, 00:53:05,VALID,1003.62,VALID,0,VALID,92.6388,VALID,0,VALID,23.0964,VALID,231,VALID,0.486328,
2009-12-22, 00:54:05,VALID,1003.6,VALID,0.5,VALID,92.7151,VALID,0,VALID,23.0769,VALID,265,VALID,0.410937,
2009-12-22, 00:55:05,VALID,1003.61,VALID,0,VALID,92.7533,VALID,0,VALID,23.0573,VALID,272,VALID,0.549219,
2009-12-22, 00:56:05,VALID,1003.58,VALID,0,VALID,92.7685,VALID,0,VALID,23.0183,VALID,279,VALID,0.988672,
2009-12-22, 00:57:05,VALID,1003.54,VALID,0.5,VALID,92.8677,VALID,0,VALID,23.0183,VALID,281,VALID,0.475,
2009-12-22, 00:58:05,VALID,1003.56,VALID,0,VALID,92.9364,VALID,0,VALID,22.9988,VALID,263,VALID,0,
2009-12-22, 00:59:05,VALID,1003.57,VALID,0,VALID,93.0127,VALID,0,VALID,22.9793,VALID,311,VALID,0,
2009-12-22, 01:00:05,VALID,1003.56,VALID,0,VALID,93.0814,VALID,0,VALID,22.9385,VALID,312,VALID,0,
2009-12-22, 01:01:05,VALID,1003.58,VALID,0,VALID,93.1348,VALID,0,VALID,22.9598,VALID,331,VALID,0.878125,
2009-12-22, 01:02:05,VALID,1003.56,VALID,0.5,VALID,93.2111,VALID,0,VALID,22.9403,VALID,318,VALID,0.260547,
2009-12-22, 01:03:05,VALID,1003.52,VALID,0,VALID,93.2645,VALID,0,VALID,22.9385,VALID,281,VALID,0,
2009-12-22, 01:04:05,VALID,1003.47,VALID,0.5,VALID,93.295,VALID,0,VALID,22.9208,VALID,220,VALID,0,
2009-12-22, 01:05:05,VALID,1003.48,VALID,0,VALID,93.295,VALID,0,VALID,22.88,VALID,233,VALID,0,
2009-12-22, 01:06:05,VALID,1003.49,VALID,0,VALID,93.3408,VALID,0,VALID,22.9013,INVALID,360,VALID,0,
2009-12-22, 01:07:05,VALID,1003.46,VALID,0.5,VALID,93.3866,VALID,0,VALID,22.9013,INVALID,360,VALID,0,
2009-12-22, 01:08:05,VALID,1003.46,VALID,0,VALID,93.4094,VALID,0,VALID,22.9013,VALID,249,VALID,0,
2009-12-22, 01:09:05,VALID,1003.45,VALID,0.5,VALID,93.4552,VALID,0,VALID,22.9013,INVALID,360,VALID,0,
2009-12-22, 01:10:05,VALID,1003.4,VALID,0,VALID,93.4857,VALID,0,VALID,22.9013,VALID,257,VALID,0,
2009-12-22, 01:11:05,VALID,1003.41,VALID,0,VALID,93.501,VALID,0,VALID,22.8818,VALID,307,VALID,0.607813,
2009-12-22, 01:12:05,VALID,1003.39,VALID,0.5,VALID,93.5468,VALID,0,VALID,22.8818,VALID,267,VALID,0.482812,
2009-12-22, 01:13:05,VALID,1003.37,VALID,0,VALID,93.5315,VALID,0,VALID,22.8623,VALID,274,VALID,0.578516,
2009-12-22, 01:14:05,VALID,1003.31,VALID,0,VALID,93.4018,VALID,0,VALID,22.7647,VALID,261,VALID,0.613672,
2009-12-22, 01:15:05,VALID,1003.31,VALID,0,VALID,93.295,VALID,0,VALID,22.7452,VALID,258,VALID,0.542969,
2009-12-22, 01:16:05,VALID,1003.26,VALID,0.5,VALID,93.2568,VALID,0,VALID,22.7452,VALID,259,VALID,0.496875,
2009-12-22, 01:17:05,VALID,1003.22,VALID,0,VALID,93.2111,VALID,0,VALID,22.7435,VALID,251,VALID,0.451562,
2009-12-22, 01:18:05,VALID,1003.21,VALID,0,VALID,93.2034,VALID,0,VALID,22.724,VALID,258,VALID,0.267969,
2009-12-22, 01:19:05,VALID,1003.17,VALID,0,VALID,93.2263,VALID,0,VALID,22.7452,VALID,258,VALID,0,
2009-12-22, 01:20:05,VALID,1003.17,VALID,0,VALID,93.2797,VALID,0,VALID,22.7452,VALID,258,VALID,0,
2009-12-22, 01:21:05,VALID,1003.14,VALID,0.5,VALID,93.3179,VALID,0,VALID,22.724,VALID,258,VALID,0,
2009-12-22, 01:22:05,VALID,1003.13,VALID,0,VALID,93.356,VALID,0,VALID,22.724,VALID,258,VALID,0,
2009-12-22, 01:23:05,VALID,1003.12,VALID,0,VALID,93.4247,VALID,0,VALID,22.7647,VALID,242,VALID,0,
2009-12-22, 01:24:05,VALID,1003.12,VALID,0,VALID,93.4552,VALID,0,VALID,22.7452,VALID,242,VALID,0,
2009-12-22, 01:25:05,VALID,1003.13,VALID,0,VALID,93.4934,VALID,0,VALID,22.7452,VALID,242,VALID,0,
2009-12-22, 01:26:05,VALID,1003.12,VALID,0,VALID,93.5468,VALID,0,VALID,22.7452,VALID,303,VALID,0,
2009-12-22, 01:27:05,VALID,1003.11,VALID,0,VALID,93.562,VALID,0,VALID,22.7647,VALID,303,VALID,0,
2009-12-22, 01:28:05,VALID,1003.11,VALID,0,VALID,93.5849,VALID,0,VALID,22.7452,VALID,303,VALID,0,
2009-12-22, 01:29:05,VALID,1003.09,VALID,0,VALID,93.5926,VALID,0,VALID,22.7452,VALID,290,VALID,0,
2009-12-22, 01:30:05,VALID,1003.08,VALID,0.5,VALID,93.4857,VALID,0,VALID,22.6672,VALID,301,VALID,1.25312,
2009-12-22, 01:31:05,VALID,1003.09,VALID,0,VALID,93.2492,VALID,0,VALID,22.5892,VALID,284,VALID,1.39258,
2009-12-22, 01:32:05,VALID,1003.08,VALID,0,VALID,92.7838,VALID,0,VALID,22.5484,VALID,308,VALID,1.35859,
2009-12-22, 01:33:05,VALID,1003.06,VALID,0,VALID,92.5091,VALID,0,VALID,22.5484,VALID,313,VALID,1.07305,
2009-12-22, 01:34:05,VALID,1003.06,VALID,0,VALID,92.0361,VALID,0,VALID,22.5306,VALID,299,VALID,1.35938,
2009-12-22, 01:35:05,VALID,1003.04,VALID,0,VALID,91.7767,VALID,0,VALID,22.4916,VALID,307,VALID,0.976563,
2009-12-22, 01:36:05,VALID,1003.03,VALID,0,VALID,91.7538,VALID,0,VALID,22.4721,VALID,311,VALID,1.0457,
2009-12-22, 01:37:05,VALID,1003.01,VALID,0,VALID,92.0437,VALID,0,VALID,22.4721,VALID,320,VALID,0.204688,
2009-12-22, 01:38:05,VALID,1002.99,VALID,0.5,VALID,92.1887,VALID,0,VALID,22.4331,VALID,301,VALID,0.761328,
2009-12-22, 01:39:05,VALID,1003.02,VALID,0,VALID,92.2726,VALID,0,VALID,22.4331,VALID,251,VALID,0.567187,
2009-12-22, 01:40:05,VALID,1002.97,VALID,0,VALID,92.3642,VALID,0,VALID,22.4136,VALID,288,VALID,1.53047,
2009-12-22, 01:41:05,VALID,1002.98,VALID,0,VALID,92.4939,VALID,0,VALID,22.4331,VALID,275,VALID,1.23203,
2009-12-22, 01:42:05,VALID,1002.97,VALID,0,VALID,92.5854,VALID,0,VALID,22.4331,VALID,286,VALID,1.07187,
2009-12-22, 01:43:05,VALID,1002.95,VALID,0,VALID,92.6007,VALID,0,VALID,22.4331,VALID,276,VALID,1,
2009-12-22, 01:44:05,VALID,1002.91,VALID,0,VALID,92.6465,VALID,0,VALID,22.4136,VALID,291,VALID,0.643359,
2009-12-22, 01:45:05,VALID,1002.95,VALID,0,VALID,92.7228,VALID,0,VALID,22.4136,VALID,273,VALID,0.665234,
2009-12-22, 01:46:05,VALID,1002.98,VALID,0,VALID,92.7609,VALID,0,VALID,22.4136,VALID,314,VALID,1.24805,
2009-12-22, 01:47:05,VALID,1002.99,VALID,0,VALID,92.7838,VALID,0,VALID,22.4136,VALID,309,VALID,0.813281,
2009-12-22, 01:48:05,VALID,1003,VALID,0,VALID,92.8067,VALID,0,VALID,22.3941,VALID,305,VALID,0.900781,
2009-12-22, 01:49:05,VALID,1002.98,VALID,0,VALID,92.8525,VALID,0,VALID,22.3941,VALID,305,VALID,0.395703,
2009-12-22, 01:50:05,VALID,1002.98,VALID,0.5,VALID,92.8906,VALID,0,VALID,22.3941,VALID,300,VALID,0.118359,
2009-12-22, 01:51:05,VALID,1002.97,VALID,0,VALID,92.944,VALID,0,VALID,22.3746,VALID,320,VALID,0,
2009-12-22, 01:52:05,VALID,1002.98,VALID,0,VALID,92.9364,VALID,0,VALID,22.3551,VALID,301,VALID,0.677344,
2009-12-22, 01:53:05,VALID,1002.96,VALID,0,VALID,92.9974,VALID,0,VALID,22.3551,VALID,297,VALID,0,
2009-12-22, 01:54:05,VALID,1002.97,VALID,0,VALID,93.0203,VALID,0,VALID,22.3534,VALID,297,VALID,0,
2009-12-22, 01:55:05,VALID,1002.98,VALID,0,VALID,93.0661,VALID,0,VALID,22.3356,VALID,300,VALID,0.0191406,
2009-12-22, 01:56:05,VALID,1002.99,VALID,0,VALID,93.1119,VALID,0,VALID,22.3144,VALID,323,VALID,0.252344,
2009-12-22, 01:57:05,VALID,1002.95,VALID,0,VALID,93.089,VALID,0,VALID,22.3178,VALID,323,VALID,0,
2009-12-22, 01:58:05,VALID,1002.95,VALID,0,VALID,92.9974,VALID,0,VALID,22.2788,VALID,324,VALID,0,
2009-12-22, 01:59:05,VALID,1002.94,VALID,0,VALID,92.9211,VALID,0,VALID,22.2788,VALID,337,VALID,0,
2009-12-22, 02:00:05,VALID,1002.89,VALID,0,VALID,92.8525,VALID,0,VALID,22.2381,VALID,337,VALID,0,
2009-12-22, 02:01:05,VALID,1002.89,VALID,0,VALID,92.8677,VALID,0,VALID,22.2576,VALID,337,VALID,0,
2009-12-22, 02:02:05,VALID,1002.86,VALID,0,VALID,92.9288,VALID,0,VALID,22.2771,VALID,304,VALID,0,
2009-12-22, 02:03:05,VALID,1002.84,VALID,0,VALID,92.8448,VALID,0,VALID,22.2592,VALID,283,VALID,0,
2009-12-22, 02:04:05,VALID,1002.88,VALID,0,VALID,92.6846,VALID,0,VALID,22.2186,VALID,283,VALID,0.587109,
2009-12-22, 02:05:05,VALID,1002.85,VALID,0,VALID,92.471,VALID,0,VALID,22.2186,VALID,258,VALID,0.297266,
2009-12-22, 02:06:05,VALID,1002.86,VALID,0,VALID,92.4405,VALID,0,VALID,22.2592,VALID,267,VALID,0.368359,
2009-12-22, 02:07:05,VALID,1002.87,VALID,0,VALID,92.5244,VALID,0,VALID,22.2592,VALID,267,VALID,0.0605469,
2009-12-22, 02:08:05,VALID,1002.89,VALID,0,VALID,92.5626,VALID,0,VALID,22.2576,VALID,267,VALID,0,
2009-12-22, 02:09:05,VALID,1002.87,VALID,0,VALID,92.6541,VALID,0,VALID,22.2364,VALID,267,VALID,0,
2009-12-22, 02:10:05,VALID,1002.87,VALID,0,VALID,92.7075,VALID,0,VALID,22.1974,VALID,267,VALID,0,
2009-12-22, 02:11:05,VALID,1002.89,VALID,0,VALID,92.7533,VALID,0,VALID,22.1974,VALID,267,VALID,0,
2009-12-22, 02:12:05,VALID,1002.88,VALID,0,VALID,92.532,VALID,0,VALID,22.16,VALID,268,VALID,0,
2009-12-22, 02:13:05,VALID,1002.91,VALID,0,VALID,92.3566,VALID,0,VALID,22.1194,VALID,268,VALID,0,
2009-12-22, 02:14:05,VALID,1002.88,VALID,0,VALID,92.326,VALID,0,VALID,22.121,VALID,268,VALID,0,
2009-12-22, 02:15:05,VALID,1002.85,VALID,0,VALID,92.3566,VALID,0,VALID,22.0998,VALID,268,VALID,0,
2009-12-22, 02:16:05,VALID,1002.84,VALID,0,VALID,92.3566,VALID,0,VALID,22.1015,VALID,268,VALID,0,
2009-12-22, 02:17:05,VALID,1002.82,VALID,0,VALID,92.4252,VALID,0,VALID,22.082,VALID,268,VALID,0,
2009-12-22, 02:18:05,VALID,1002.8,VALID,0,VALID,92.4786,VALID,0,VALID,22.1015,VALID,268,VALID,0,
2009-12-22, 02:19:05,VALID,1002.77,VALID,0,VALID,92.5015,VALID,0,VALID,22.1194,VALID,268,VALID,0.148047,
2009-12-22, 02:20:05,VALID,1002.76,VALID,0,VALID,92.5168,VALID,0,VALID,22.1405,VALID,267,VALID,0,
2009-12-22, 02:21:05,VALID,1002.75,VALID,0,VALID,92.532,VALID,0,VALID,22.1795,VALID,264,VALID,0,
2009-12-22, 02:22:05,VALID,1002.75,VALID,0,VALID,92.4023,VALID,0,VALID,22.1779,INVALID,360,VALID,0,
2009-12-22, 02:23:05,VALID,1002.72,VALID,0,VALID,92.2955,VALID,0,VALID,22.199,INVALID,360,VALID,0,
2009-12-22, 02:24:05,VALID,1002.71,VALID,0,VALID,92.2497,VALID,0,VALID,22.2186,VALID,229,VALID,0.620313,
2009-12-22, 02:25:05,VALID,1002.7,VALID,0,VALID,92.12,VALID,0,VALID,22.199,VALID,229,VALID,0.573438,
2009-12-22, 02:26:05,VALID,1002.71,VALID,0,VALID,92.0437,VALID,0,VALID,22.2186,VALID,230,VALID,0.500391,
2009-12-22, 02:27:05,VALID,1002.7,VALID,0,VALID,91.9598,VALID,0,VALID,22.199,VALID,228,VALID,0.244531,
2009-12-22, 02:28:05,VALID,1002.7,VALID,0,VALID,91.7843,VALID,0,VALID,22.1812,VALID,226,VALID,0.40625,
2009-12-22, 02:29:05,VALID,1002.73,VALID,0,VALID,91.7767,VALID,0,VALID,22.1812,VALID,223,VALID,0,
2009-12-22, 02:30:05,VALID,1002.74,VALID,0,VALID,91.6088,VALID,0,VALID,22.1617,VALID,211,VALID,0.467187,
2009-12-22, 02:31:05,VALID,1002.73,VALID,0,VALID,91.3952,VALID,0,VALID,22.16,VALID,208,VALID,0.469531,
2009-12-22, 02:32:05,VALID,1002.75,VALID,0,VALID,91.2197,VALID,0,VALID,22.16,VALID,205,VALID,0.469141,
2009-12-22, 02:33:05,VALID,1002.74,VALID,0,VALID,91.1511,VALID,0,VALID,22.1405,VALID,204,VALID,0.421875,
2009-12-22, 02:34:05,VALID,1002.75,VALID,0,VALID,91.0595,VALID,0,VALID,22.16,VALID,192,VALID,0.940625,
2009-12-22, 02:35:05,VALID,1002.76,VALID,0,VALID,91.8683,VALID,0,VALID,22.2202,VALID,180,VALID,1.37852,
2009-12-22, 02:36:05,VALID,1002.75,VALID,0,VALID,91.9903,VALID,0,VALID,22.1812,VALID,179,VALID,1.7457,
2009-12-22, 02:37:05,VALID,1002.76,VALID,0,VALID,92.1506,VALID,0,VALID,22.1405,VALID,184,VALID,1.36797,
2009-12-22, 02:38:05,VALID,1002.73,VALID,0,VALID,92.2268,VALID,0,VALID,22.1015,VALID,180,VALID,1.47539,
2009-12-22, 02:39:05,VALID,1002.76,VALID,0,VALID,92.4023,VALID,0,VALID,22.1015,VALID,184,VALID,1.30703,
2009-12-22, 02:40:05,VALID,1002.74,VALID,0,VALID,92.4328,VALID,0,VALID,22.1032,VALID,180,VALID,1.42148,
2009-12-22, 02:41:05,VALID,1002.7,VALID,0,VALID,92.5244,VALID,0,VALID,22.082,VALID,190,VALID,1.56992,
2009-12-22, 02:42:05,VALID,1002.69,VALID,0,VALID,92.5015,VALID,0,VALID,22.1032,VALID,190,VALID,1.67656,
2009-12-22, 02:43:05,VALID,1002.68,VALID,0,VALID,92.4634,VALID,0,VALID,22.0837,VALID,197,VALID,1.41172,
2009-12-22, 02:44:05,VALID,1002.69,VALID,0,VALID,92.5702,VALID,0,VALID,22.1032,VALID,190,VALID,1.14023,
2009-12-22, 02:45:05,VALID,1002.7,VALID,0,VALID,92.5854,VALID,0,VALID,22.1227,VALID,203,VALID,1.04883,
2009-12-22, 02:46:04,VALID,1002.67,VALID,0,VALID,92.6236,VALID,0,VALID,22.1227,VALID,213,VALID,0.534375,
2009-12-22, 02:47:04,VALID,1002.66,VALID,0.5,VALID,92.616,VALID,0,VALID,22.1015,VALID,241,VALID,0.744141,
2009-12-22, 02:48:04,VALID,1002.67,VALID,0,VALID,92.6388,VALID,0,VALID,22.082,VALID,247,VALID,0.894531,
2009-12-22, 02:49:04,VALID,1002.67,VALID,0,VALID,92.5931,VALID,0,VALID,22.1032,VALID,219,VALID,1.16016,
2009-12-22, 02:50:04,VALID,1002.67,VALID,0,VALID,92.5473,VALID,0,VALID,22.0837,VALID,225,VALID,1.10859,
2009-12-22, 02:51:04,VALID,1002.67,VALID,0,VALID,92.6007,VALID,0,VALID,22.0837,VALID,223,VALID,1.16562,
2009-12-22, 02:52:04,VALID,1002.69,VALID,0,VALID,92.616,VALID,0,VALID,22.043,VALID,221,VALID,0.955469,
2009-12-22, 02:53:04,VALID,1002.68,VALID,0,VALID,92.4939,VALID,0,VALID,22.0625,VALID,225,VALID,1.04141,
2009-12-22, 02:54:04,VALID,1002.66,VALID,0,VALID,92.2726,VALID,0,VALID,22.0837,VALID,222,VALID,1.48906,
2009-12-22, 02:55:04,VALID,1002.66,VALID,0,VALID,92.1124,VALID,0,VALID,22.0625,VALID,222,VALID,1.65,
2009-12-22, 02:56:04,VALID,1002.69,VALID,0,VALID,92.0666,VALID,0,VALID,22.0625,VALID,233,VALID,1.18633,
2009-12-22, 02:57:04,VALID,1002.66,VALID,0,VALID,92.0971,VALID,0,VALID,22.082,VALID,232,VALID,0.777734,
2009-12-22, 02:58:04,VALID,1002.69,VALID,0,VALID,92.1277,VALID,0,VALID,22.1032,VALID,219,VALID,0.976563,
2009-12-22, 02:59:04,VALID,1002.68,VALID,0,VALID,92.1582,VALID,0,VALID,22.0837,VALID,224,VALID,0.767969,
2009-12-22, 03:00:04,VALID,1002.69,VALID,0,VALID,92.3031,VALID,0,VALID,22.0837,VALID,213,VALID,0.5125,
2009-12-22, 03:01:04,VALID,1002.68,VALID,0,VALID,92.265,VALID,0,VALID,22.0625,VALID,184,VALID,1.21133,
2009-12-22, 03:02:04,VALID,1002.67,VALID,0,VALID,92.3031,VALID,0,VALID,22.0642,VALID,196,VALID,1.07773,
2009-12-22, 03:03:04,VALID,1002.66,VALID,0,VALID,92.4328,VALID,0,VALID,22.043,VALID,180,VALID,1.03203,
2009-12-22, 03:04:04,VALID,1002.61,VALID,0,VALID,92.4328,VALID,0,VALID,22.0625,VALID,191,VALID,1.67227,
2009-12-22, 03:05:04,VALID,1002.63,VALID,0,VALID,92.3184,VALID,0,VALID,22.0447,VALID,187,VALID,1.46914,
2009-12-22, 03:06:04,VALID,1002.59,VALID,0,VALID,92.3566,VALID,0,VALID,22.0235,VALID,185,VALID,1.37812,
2009-12-22, 03:07:04,VALID,1002.58,VALID,0,VALID,92.3871,VALID,0,VALID,22.0447,VALID,179,VALID,1.32773,
2009-12-22, 03:08:04,VALID,1002.6,VALID,0,VALID,92.4023,VALID,0,VALID,22.0447,VALID,186,VALID,1.55117,
2009-12-22, 03:09:04,VALID,1002.59,VALID,0,VALID,92.3413,VALID,0,VALID,22.0252,VALID,193,VALID,1.44297,
2009-12-22, 03:10:04,VALID,1002.6,VALID,0,VALID,92.2803,VALID,0,VALID,22.0447,VALID,210,VALID,1.40313,
2009-12-22, 03:11:04,VALID,1002.62,VALID,0,VALID,92.3184,VALID,0,VALID,22.0642,VALID,210,VALID,1.00859,
2009-12-22, 03:12:04,VALID,1002.6,VALID,0,VALID,92.4557,VALID,0,VALID,22.0625,VALID,194,VALID,0.780469,
2009-12-22, 03:13:04,VALID,1002.6,VALID,0,VALID,92.4023,VALID,0,VALID,22.0625,VALID,192,VALID,1.33125,
2009-12-22, 03:14:04,VALID,1002.61,VALID,0,VALID,92.12,VALID,0,VALID,22.0837,VALID,198,VALID,1.56172,
2009-12-22, 03:15:04,VALID,1002.66,VALID,0,VALID,92.1277,VALID,0,VALID,22.0837,VALID,186,VALID,1.35938,
2009-12-22, 03:16:04,VALID,1002.65,VALID,0,VALID,92.0514,VALID,0,VALID,22.0837,VALID,198,VALID,1.20195,
2009-12-22, 03:17:04,VALID,1002.62,VALID,0,VALID,92.1506,VALID,0,VALID,22.1032,VALID,193,VALID,1.02813,
2009-12-22, 03:18:04,VALID,1002.61,VALID,0,VALID,91.9217,VALID,0,VALID,22.0837,VALID,200,VALID,1.17891,
2009-12-22, 03:19:04,VALID,1002.61,VALID,0,VALID,91.9674,VALID,0,VALID,22.0625,VALID,183,VALID,1.37305,
2009-12-22, 03:20:04,VALID,1002.61,VALID,0,VALID,91.8683,VALID,0,VALID,22.0837,VALID,190,VALID,1.75586,
2009-12-22, 03:21:04,VALID,1002.59,VALID,0,VALID,91.8606,VALID,0,VALID,22.0837,VALID,187,VALID,1.5457,
2009-12-22, 03:22:04,VALID,1002.58,VALID,0,VALID,91.9674,VALID,0,VALID,22.1015,VALID,190,VALID,1.27852,
2009-12-22, 03:23:04,VALID,1002.59,VALID,0,VALID,91.7843,VALID,0,VALID,22.0837,VALID,189,VALID,1.66211,
2009-12-22, 03:24:04,VALID,1002.58,VALID,0,VALID,91.7538,VALID,0,VALID,22.1032,VALID,200,VALID,1.64961,
2009-12-22, 03:25:04,VALID,1002.58,VALID,0,VALID,91.7462,VALID,0,VALID,22.1015,VALID,191,VALID,1.90703,
2009-12-22, 03:26:04,VALID,1002.59,VALID,0,VALID,91.7309,VALID,0,VALID,22.1227,VALID,193,VALID,1.50078,
2009-12-22, 03:27:04,VALID,1002.57,VALID,0,VALID,91.7614,VALID,0,VALID,22.121,VALID,187,VALID,0.823438,
2009-12-22, 03:28:04,VALID,1002.57,VALID,0,VALID,91.8606,VALID,0,VALID,22.121,VALID,196,VALID,0.9875,
2009-12-22, 03:29:04,VALID,1002.58,VALID,0,VALID,91.6241,VALID,0,VALID,22.1015,VALID,195,VALID,1.55664,
2009-12-22, 03:30:04,VALID,1002.59,VALID,0,VALID,91.6546,VALID,0.112286,VALID,22.1015,VALID,196,VALID,1.37734,
2009-12-22, 03:31:04,VALID,1002.59,VALID,0,VALID,91.6546,VALID,0,VALID,22.1015,VALID,198,VALID,1.39258,
2009-12-22, 03:32:04,VALID,1002.59,VALID,0,VALID,91.5783,VALID,0,VALID,22.082,VALID,182,VALID,1.3375,
2009-12-22, 03:33:04,VALID,1002.58,VALID,0,VALID,91.6928,VALID,0,VALID,22.082,VALID,184,VALID,1.42695,
2009-12-22, 03:34:04,VALID,1002.57,VALID,0,VALID,91.6546,VALID,0,VALID,22.0803,VALID,193,VALID,0.959375,
2009-12-22, 03:35:04,VALID,1002.57,VALID,0,VALID,91.6775,VALID,0.112286,VALID,22.0803,VALID,183,VALID,1.19766,
2009-12-22, 03:36:04,VALID,1002.59,VALID,0,VALID,91.6394,VALID,0,VALID,22.082,VALID,183,VALID,1.22617,
2009-12-22, 03:37:04,VALID,1002.57,VALID,0,VALID,91.708,VALID,0,VALID,22.082,VALID,186,VALID,0.849219,
2009-12-22, 03:38:04,VALID,1002.58,VALID,0,VALID,91.6623,VALID,0,VALID,22.082,VALID,208,VALID,1.18359,
2009-12-22, 03:39:04,VALID,1002.58,VALID,0,VALID,91.5631,VALID,0,VALID,22.082,VALID,188,VALID,1.1418,
2009-12-22, 03:40:04,VALID,1002.56,VALID,0,VALID,91.4791,VALID,0.112286,VALID,22.0803,VALID,187,VALID,1.41523,
2009-12-22, 03:41:04,VALID,1002.54,VALID,0,VALID,91.38,VALID,0.112286,VALID,22.082,VALID,196,VALID,1.09336,
2009-12-22, 03:42:04,VALID,1002.6,VALID,0,VALID,91.3342,VALID,0,VALID,22.1032,VALID,195,VALID,1.13203,
2009-12-22, 03:43:04,VALID,1002.56,VALID,0,VALID,91.3571,VALID,0,VALID,22.1032,VALID,194,VALID,0.919922,
2009-12-22, 03:44:04,VALID,1002.58,VALID,0,VALID,91.3571,VALID,0,VALID,22.082,VALID,195,VALID,1.02305,
2009-12-22, 03:45:04,VALID,1002.6,VALID,0,VALID,91.3647,VALID,0,VALID,22.1015,VALID,202,VALID,0.821094,
2009-12-22, 03:46:04,VALID,1002.59,VALID,0,VALID,91.4715,VALID,0,VALID,22.1032,VALID,177,VALID,0.991797,